FIREBIRD 4 (40378 NORAD) Tracking and Keplerian Element Data

This shows tracking and keplerian element data for the satellite.

Feedback or suggestion? Click here.




ElementValue
Catalog40378
NameFIREBIRD 4
Epoch Orbit46586
Epoch Day175.82412062
Epoch Year2023
RAAN137.5651
Inclination99.0757
Eccentricity0.0039654
Argument of Perigee169.7973
Mean Anonmoly190.4102
Mean Motion15.77496232
Decay Rate0.00260047
L11 40378U 15003C 23175.82412062 .00260047 00000+0 14545-2 0 9993
L22 40378 99.0757 137.5651 0039654 169.7973 190.4102 15.77496232465860



Live tracking and technical data element details for FIREBIRD 4 (NORAD 40378). FIREBIRD 4 can be tracked NOW for your location showing map with azimuth and elevation plus other details from your city location.







IsCatalogInMostPopularTable: catalog: 40378, numindb: 356
Update: records affected: 1



GetName: 40378 FIREBIRD 4

Hit Count: updated at: Thu, 23 Jan 2025 17:53:20 GMT